GFSCGP_prec_precacc_234.txt.gz
Total_Precipitation_Accumulation
0.00 0.00 0.02 0.04 0.02 0.02 0.02 0.03 0.03 0.04 0.02 0.05 0.08 0.08 0.10 0.10 0.06 0.02 0.02 0.03 0.03 0.00 0.00 0.18 0.30 0.47 0.66 0.90 1.56 1.62 1.68 1.49 1.55 1.20 0.78 0.81 0.90 1.44 1.47 1.69 1.50 1.26 1.37 1.51
0.02 0.00 0.01 0.01 0.02 0.02 0.02 0.03 0.06 0.06 0.01 0.02 0.03 0.05 0.05 0.02 0.03 0.03 0.02 0.02 0.04 0.03 0.01 0.06 0.20 0.29 0.41 0.40 1.07 1.76 2.02 2.29 2.38 2.17 1.62 1.64 1.55 1.57 1.44 1.35 1.04 0.87 1.38 1.50
0.05 0.03 0.04 0.05 0.07 0.07 0.03 0.05 0.06 0.06 0.07 0.03 0.01 0.00 0.00 0.00 0.00 0.00 0.01 0.01 0.04 0.11 0.12 0.15 0.24 0.25 0.36 0.31 0.61 1.21 2.20 1.95 1.55 1.69 1.90 2.34 2.35 2.41 2.09 1.92 1.72 1.66 1.88 2.29
0.10 0.07 0.07 0.10 0.10 0.16 0.10 0.07 0.13 0.13 0.23 0.14 0.02 0.03 0.00 0.00 0.00 0.00 0.01 0.01 0.05 0.08 0.15 0.10 0.33 0.43 0.42 0.49 0.90 1.27 1.95 1.91 1.57 1.58 1.38 1.58 2.14 3.12 2.92 2.56 2.50 2.82 2.20 1.94
0.17 0.11 0.16 0.12 0.08 0.12 0.11 0.13 0.21 0.26 0.25 0.22 0.14 0.11 0.00 0.00 0.01 0.01 0.00 0.01 0.02 0.06 0.11 0.08 0.11 0.31 0.59 0.76 0.76 1.08 2.25 3.13 3.56 3.20 2.56 1.96 2.13 2.48 3.26 4.10 4.23 3.86 3.81 2.64
0.18 0.16 0.22 0.12 0.12 0.11 0.24 0.22 0.41 0.37 0.32 0.19 0.27 0.18 0.06 0.10 0.32 0.14 0.05 0.03 0.04 0.06 0.09 0.18 0.34 0.42 0.57 0.60 0.60 1.07 1.65 2.53 3.50 4.36 5.03 4.62 3.81 3.98 4.44 4.59 4.55 4.60 4.27 3.89
0.18 0.14 0.16 0.16 0.18 0.14 0.24 0.40 0.84 0.72 0.52 0.22 0.31 0.31 0.27 0.22 0.57 0.42 0.27 0.17 0.21 0.16 0.20 0.42 0.78 0.62 0.64 0.54 0.55 0.84 1.37 1.52 2.26 2.78 3.59 4.42 4.86 6.20 6.01 4.13 3.84 3.67 3.75 4.24
0.18 0.16 0.09 0.12 0.16 0.15 0.16 0.36 1.04 1.24 0.61 0.73 0.76 0.73 0.59 0.34 0.27 0.47 0.52 0.45 0.42 0.43 0.43 0.94 1.59 1.27 1.07 0.71 1.02 1.21 1.48 1.43 1.44 1.94 3.17 4.20 5.09 4.51 3.70 3.18 2.92 2.81 2.18 2.43
0.26 0.31 0.02 0.06 0.06 0.08 0.14 0.23 0.50 0.89 0.74 0.82 0.74 0.59 0.45 0.41 0.08 0.39 0.53 0.71 0.60 0.57 0.70 0.97 0.99 0.95 0.84 0.74 1.10 1.07 1.39 1.36 1.49 2.23 3.03 3.01 2.30 1.71 1.52 2.29 3.40 3.63 3.07 2.68
0.09 0.20 0.02 0.10 0.02 0.02 0.06 0.10 0.28 0.91 1.24 0.65 0.16 0.05 0.13 0.44 0.34 0.41 0.33 0.51 0.82 0.73 0.82 0.94 0.95 1.02 1.05 1.07 1.19 1.15 1.13 1.08 1.53 2.43 2.02 1.33 0.90 0.87 1.03 1.49 1.60 2.10 3.11 3.30
0.02 0.07 0.05 0.12 0.04 0.04 0.03 0.06 0.14 0.41 0.54 0.68 0.37 0.09 0.07 0.20 0.30 0.18 0.19 0.40 0.65 0.68 0.62 0.60 0.64 0.82 0.75 0.69 0.72 0.72 0.69 0.72 0.79 0.99 1.16 0.88 0.78 0.72 0.75 1.00 1.36 1.39 1.56 1.70
0.05 0.13 0.10 0.09 0.02 0.04 0.06 0.13 0.30 0.95 0.92 0.71 0.69 0.40 0.09 0.09 0.12 0.16 0.16 0.12 0.20 0.41 0.46 0.44 0.49 0.40 0.46 0.52 0.69 0.39 0.37 0.44 0.45 0.55 0.76 0.61 0.76 0.60 0.54 0.51 0.85 0.92 1.04 1.06
0.11 0.23 0.29 0.10 0.08 0.16 0.24 0.21 0.26 0.62 0.98 0.78 0.82 0.37 0.16 0.16 0.10 0.10 0.07 0.07 0.07 0.10 0.14 0.19 0.26 0.26 0.22 0.24 0.24 0.16 0.20 0.34 0.31 0.32 0.43 0.82 0.76 0.73 0.63 0.62 0.65 0.63 0.61 0.75
0.21 0.31 0.42 0.49 0.41 0.48 0.46 0.49 0.41 0.39 0.78 0.62 0.39 0.21 0.33 0.49 0.20 0.09 0.07 0.08 0.12 0.09 0.09 0.15 0.21 0.16 0.21 0.28 0.23 0.23 0.24 0.23 0.27 0.24 0.29 0.66 0.96 0.96 0.96 0.59 0.46 0.55 0.60 0.64
0.22 0.34 0.17 0.19 0.15 0.26 0.23 0.15 0.29 0.42 0.36 0.48 0.32 0.29 0.33 0.30 0.25 0.15 0.11 0.11 0.14 0.23 0.17 0.26 0.37 0.27 0.18 0.18 0.25 0.22 0.21 0.28 0.38 0.34 0.28 0.42 0.70 1.09 1.28 0.97 0.68 0.58 0.61 0.50
0.24 0.46 0.28 0.22 0.08 0.12 0.14 0.08 0.06 0.14 0.21 0.18 0.11 0.15 0.26 0.17 0.07 0.09 0.11 0.11 0.13 0.17 0.28 0.30 0.43 0.55 0.30 0.33 0.42 0.47 0.35 0.30 0.33 0.35 0.32 0.32 0.39 0.70 1.50 1.38 0.99 0.68 0.58 0.53
0.26 0.42 0.57 0.48 0.13 0.20 0.25 0.05 0.04 0.04 0.06 0.12 0.20 0.24 0.17 0.22 0.10 0.06 0.07 0.09 0.14 0.13 0.20 0.37 0.85 0.60 0.49 0.50 0.60 0.66 0.61 0.49 0.50 0.36 0.28 0.31 0.46 0.53 0.97 1.51 1.55 1.02 0.59 0.61
0.24 0.31 0.75 0.69 0.32 0.60 0.22 0.00 0.02 0.07 0.05 0.16 0.34 0.45 0.35 0.16 0.07 0.03 0.11 0.11 0.11 0.19 0.16 0.18 0.66 1.17 0.74 0.76 0.58 0.56 0.63 0.72 0.69 0.62 0.38 0.30 0.37 0.58 0.71 1.15 1.56 1.39 0.98 1.19
0.15 0.42 1.04 0.79 0.48 0.31 0.06 0.01 0.05 0.14 0.15 0.22 0.36 0.29 0.11 0.05 0.02 0.02 0.08 0.07 0.10 0.14 0.31 0.22 0.42 0.72 0.77 0.74 0.65 0.49 0.38 0.33 0.59 0.90 0.67 0.49 0.42 0.52 0.83 1.31 2.02 1.64 1.72 2.03
0.13 0.33 0.93 0.79 1.05 0.54 0.12 0.03 0.04 0.16 0.25 0.27 0.36 0.23 0.14 0.14 0.16 0.04 0.04 0.06 0.13 0.30 0.31 0.27 0.28 0.39 0.62 0.73 0.82 0.50 0.40 0.32 0.46 0.77 0.93 0.63 0.66 0.55 1.04 1.91 2.44 1.86 1.94 2.31
0.36 0.64 0.91 0.48 0.99 0.36 0.12 0.08 0.09 0.40 0.53 0.21 0.21 0.23 0.23 0.24 0.19 0.08 0.09 0.05 0.03 0.16 0.20 0.28 0.32 0.35 0.48 0.79 0.89 0.79 0.38 0.50 0.48 0.66 0.83 0.76 0.79 0.83 1.23 2.20 2.47 2.06 2.17 2.66
0.45 0.82 0.73 0.67 0.81 0.23 0.14 0.20 0.31 0.46 0.42 0.29 0.20 0.17 0.22 0.22 0.18 0.09 0.05 0.01 0.02 0.02 0.05 0.29 0.47 0.40 0.37 0.63 0.88 1.00 0.54 0.44 0.57 0.71 0.83 0.91 0.89 1.01 1.25 2.09 2.50 2.21 1.97 2.33
0.20 0.39 0.54 0.57 0.31 0.03 0.02 0.09 0.15 0.26 0.29 0.21 0.19 0.18 0.17 0.14 0.14 0.13 0.07 0.03 0.01 0.00 0.00 0.18 0.67 0.69 0.65 0.59 0.63 0.93 0.62 0.48 0.59 0.72 0.91 0.94 0.90 1.05 1.23 1.67 2.45 2.24 2.46 2.18
0.03 0.07 0.23 0.31 0.06 0.00 0.00 0.01 0.05 0.09 0.14 0.11 0.10 0.16 0.30 0.21 0.11 0.13 0.10 0.05 0.04 0.02 0.01 0.12 0.58 1.10 1.35 1.30 0.95 0.85 0.56 0.49 0.54 0.61 0.74 0.80 0.87 1.38 1.55 1.56 2.36 2.03 2.68 2.31
0.04 0.09 0.13 0.15 0.01 0.07 0.02 0.03 0.04 0.01 0.00 0.02 0.07 0.21 0.36 0.30 0.16 0.11 0.13 0.09 0.06 0.05 0.06 0.15 0.41 1.38 2.21 2.14 1.43 1.19 0.63 0.50 0.56 0.55 0.65 0.67 0.96 1.53 1.72 2.00 2.55 2.52 2.94 2.49
0.01 0.02 0.19 0.23 0.05 0.25 0.10 0.01 0.00 0.00 0.01 0.01 0.04 0.10 0.18 0.22 0.18 0.14 0.19 0.14 0.08 0.09 0.13 0.25 0.50 1.43 2.95 2.51 2.12 1.61 0.76 0.50 0.54 0.55 0.66 0.89 1.10 1.58 1.76 1.75 2.73 3.93 3.84 3.33

GFSCGP_prec_precacc_237.txt.gz
Total_Precipitation_Accumulation
0.00 0.00 0.02 0.04 0.02 0.02 0.02 0.03 0.03 0.04 0.02 0.05 0.08 0.08 0.10 0.10 0.06 0.02 0.02 0.03 0.03 0.00 0.00 0.18 0.30 0.47 0.66 0.90 1.56 1.62 1.68 1.49 1.55 1.20 0.78 0.81 0.90 1.44 1.47 1.69 1.50 1.26 1.37 1.51
0.02 0.00 0.01 0.01 0.02 0.02 0.02 0.03 0.06 0.06 0.01 0.02 0.03 0.05 0.05 0.02 0.03 0.03 0.02 0.02 0.04 0.03 0.01 0.06 0.20 0.29 0.41 0.40 1.07 1.76 2.02 2.29 2.38 2.17 1.62 1.64 1.55 1.57 1.44 1.35 1.04 0.87 1.38 1.50
0.05 0.03 0.04 0.05 0.07 0.07 0.03 0.05 0.06 0.06 0.07 0.03 0.01 0.00 0.00 0.00 0.00 0.00 0.01 0.01 0.04 0.11 0.12 0.15 0.24 0.25 0.36 0.31 0.61 1.21 2.20 1.95 1.55 1.69 1.90 2.34 2.35 2.41 2.09 1.92 1.72 1.66 1.88 2.29
0.10 0.07 0.07 0.10 0.10 0.16 0.10 0.07 0.13 0.13 0.23 0.14 0.02 0.03 0.00 0.00 0.00 0.00 0.01 0.01 0.05 0.08 0.15 0.10 0.33 0.43 0.42 0.49 0.90 1.27 1.95 1.91 1.57 1.58 1.38 1.58 2.14 3.12 2.92 2.56 2.50 2.82 2.20 1.94
0.17 0.11 0.16 0.12 0.08 0.12 0.11 0.13 0.21 0.26 0.25 0.22 0.14 0.11 0.00 0.00 0.01 0.01 0.00 0.01 0.02 0.06 0.11 0.08 0.11 0.31 0.59 0.76 0.76 1.08 2.25 3.13 3.56 3.20 2.56 1.96 2.13 2.48 3.26 4.10 4.23 3.86 3.81 2.64
0.18 0.16 0.22 0.12 0.12 0.11 0.24 0.22 0.41 0.37 0.32 0.19 0.27 0.18 0.06 0.10 0.32 0.14 0.05 0.03 0.04 0.06 0.09 0.18 0.34 0.42 0.57 0.60 0.60 1.07 1.65 2.53 3.50 4.36 5.03 4.63 3.82 3.98 4.44 4.59 4.56 4.61 4.27 3.89
0.18 0.14 0.16 0.16 0.18 0.14 0.24 0.40 0.84 0.72 0.52 0.22 0.31 0.31 0.27 0.22 0.57 0.42 0.27 0.17 0.21 0.16 0.20 0.42 0.78 0.62 0.64 0.54 0.55 0.84 1.37 1.52 2.26 2.78 3.60 4.43 4.88 6.22 6.03 4.13 3.84 3.67 3.75 4.24
0.18 0.16 0.09 0.12 0.16 0.15 0.16 0.36 1.04 1.24 0.61 0.73 0.76 0.73 0.59 0.34 0.27 0.47 0.52 0.45 0.42 0.43 0.43 0.94 1.59 1.27 1.07 0.71 1.02 1.21 1.49 1.44 1.45 1.95 3.19 4.22 5.11 4.53 3.72 3.18 2.93 2.82 2.19 2.43
0.26 0.31 0.02 0.06 0.06 0.08 0.14 0.23 0.50 0.89 0.74 0.82 0.74 0.59 0.45 0.41 0.08 0.39 0.53 0.71 0.60 0.57 0.70 0.97 0.99 0.95 0.84 0.74 1.10 1.07 1.41 1.40 1.51 2.26 3.07 3.05 2.33 1.74 1.56 2.32 3.44 3.68 3.10 2.70
0.09 0.20 0.02 0.10 0.02 0.02 0.06 0.10 0.28 0.91 1.24 0.65 0.16 0.05 0.13 0.44 0.34 0.41 0.33 0.51 0.82 0.73 0.82 0.94 0.95 1.02 1.05 1.07 1.19 1.15 1.14 1.09 1.55 2.46 2.07 1.39 0.95 0.91 1.08 1.55 1.65 2.16 3.16 3.34
0.02 0.07 0.05 0.12 0.04 0.04 0.03 0.06 0.14 0.41 0.54 0.68 0.37 0.09 0.07 0.20 0.30 0.18 0.19 0.40 0.65 0.68 0.62 0.60 0.64 0.82 0.75 0.69 0.72 0.73 0.70 0.73 0.81 1.03 1.21 0.95 0.85 0.78 0.82 1.08 1.42 1.45 1.62 1.75
0.05 0.13 0.10 0.09 0.02 0.04 0.06 0.13 0.30 0.95 0.92 0.71 0.69 0.40 0.09 0.09 0.12 0.16 0.16 0.12 0.20 0.41 0.46 0.44 0.49 0.40 0.46 0.52 0.70 0.40 0.38 0.46 0.47 0.57 0.79 0.65 0.81 0.67 0.62 0.58 0.91 0.98 1.08 1.11
0.11 0.23 0.29 0.10 0.08 0.16 0.24 0.21 0.26 0.62 0.98 0.78 0.82 0.37 0.16 0.16 0.10 0.10 0.07 0.07 0.07 0.10 0.14 0.19 0.26 0.26 0.22 0.25 0.26 0.18 0.23 0.39 0.32 0.34 0.44 0.84 0.80 0.78 0.70 0.70 0.72 0.69 0.65 0.78
0.21 0.31 0.42 0.49 0.41 0.48 0.46 0.49 0.41 0.39 0.78 0.62 0.39 0.21 0.33 0.49 0.20 0.09 0.07 0.08 0.12 0.09 0.09 0.15 0.21 0.16 0.21 0.29 0.25 0.28 0.31 0.29 0.29 0.26 0.31 0.69 1.01 1.02 1.06 0.69 0.53 0.60 0.63 0.65
0.22 0.34 0.17 0.19 0.15 0.26 0.23 0.15 0.29 0.42 0.36 0.48 0.32 0.29 0.33 0.30 0.25 0.15 0.11 0.11 0.14 0.23 0.17 0.26 0.37 0.27 0.19 0.21 0.29 0.28 0.27 0.31 0.41 0.38 0.29 0.44 0.73 1.15 1.34 1.03 0.71 0.59 0.61 0.50
0.24 0.46 0.28 0.22 0.08 0.12 0.14 0.08 0.06 0.14 0.21 0.18 0.11 0.15 0.26 0.17 0.07 0.09 0.11 0.11 0.13 0.17 0.28 0.30 0.43 0.56 0.34 0.41 0.52 0.54 0.39 0.34 0.39 0.38 0.33 0.34 0.41 0.73 1.53 1.41 1.01 0.69 0.59 0.54
0.26 0.42 0.57 0.48 0.13 0.20 0.25 0.05 0.04 0.04 0.06 0.12 0.20 0.24 0.17 0.22 0.10 0.06 0.07 0.09 0.14 0.13 0.20 0.37 0.85 0.61 0.53 0.57 0.69 0.70 0.63 0.53 0.55 0.38 0.29 0.33 0.48 0.55 0.99 1.53 1.58 1.06 0.63 0.64
0.24 0.31 0.75 0.69 0.32 0.60 0.22 0.00 0.02 0.07 0.05 0.16 0.34 0.45 0.35 0.16 0.07 0.03 0.11 0.11 0.11 0.19 0.16 0.18 0.67 1.21 0.79 0.79 0.60 0.56 0.63 0.73 0.70 0.62 0.38 0.31 0.38 0.59 0.72 1.16 1.59 1.46 1.02 1.26
0.15 0.42 1.04 0.79 0.48 0.31 0.06 0.01 0.05 0.14 0.15 0.22 0.36 0.29 0.11 0.05 0.02 0.02 0.08 0.07 0.10 0.14 0.31 0.22 0.42 0.74 0.79 0.74 0.66 0.50 0.39 0.33 0.60 0.90 0.67 0.49 0.42 0.52 0.84 1.31 2.04 1.67 1.74 2.05
0.13 0.33 0.93 0.79 1.05 0.54 0.12 0.03 0.04 0.16 0.25 0.27 0.36 0.23 0.14 0.14 0.16 0.04 0.04 0.06 0.13 0.30 0.31 0.27 0.28 0.39 0.62 0.73 0.82 0.50 0.40 0.32 0.46 0.77 0.93 0.63 0.66 0.55 1.04 1.91 2.45 1.87 1.95 2.31
0.36 0.64 0.91 0.48 0.99 0.36 0.12 0.08 0.09 0.40 0.53 0.21 0.21 0.23 0.23 0.24 0.19 0.08 0.09 0.05 0.03 0.16 0.20 0.28 0.32 0.35 0.49 0.79 0.89 0.79 0.38 0.50 0.48 0.66 0.83 0.76 0.79 0.83 1.23 2.20 2.47 2.06 2.17 2.66
0.45 0.82 0.73 0.67 0.81 0.23 0.14 0.20 0.31 0.46 0.42 0.29 0.20 0.17 0.22 0.22 0.18 0.09 0.05 0.01 0.02 0.02 0.05 0.29 0.47 0.41 0.37 0.63 0.88 1.00 0.54 0.44 0.57 0.71 0.83 0.91 0.89 1.01 1.25 2.09 2.50 2.21 1.97 2.33
0.20 0.39 0.54 0.57 0.31 0.03 0.02 0.09 0.15 0.26 0.29 0.21 0.19 0.18 0.17 0.14 0.14 0.13 0.07 0.03 0.01 0.00 0.00 0.18 0.67 0.69 0.65 0.59 0.64 0.93 0.62 0.48 0.59 0.72 0.91 0.94 0.90 1.05 1.23 1.67 2.45 2.24 2.46 2.18
0.03 0.07 0.23 0.31 0.06 0.00 0.00 0.01 0.05 0.09 0.14 0.11 0.10 0.16 0.30 0.21 0.11 0.13 0.10 0.05 0.04 0.02 0.01 0.12 0.58 1.11 1.36 1.30 0.95 0.85 0.56 0.49 0.54 0.61 0.74 0.80 0.87 1.38 1.55 1.56 2.36 2.03 2.68 2.31
0.04 0.09 0.13 0.15 0.01 0.07 0.02 0.03 0.04 0.01 0.00 0.02 0.07 0.21 0.36 0.30 0.16 0.11 0.13 0.09 0.06 0.05 0.06 0.15 0.41 1.39 2.22 2.14 1.43 1.19 0.63 0.50 0.56 0.55 0.65 0.67 0.96 1.53 1.72 2.00 2.55 2.52 2.94 2.49
0.01 0.02 0.19 0.23 0.05 0.25 0.10 0.01 0.00 0.00 0.01 0.01 0.04 0.10 0.18 0.22 0.18 0.14 0.19 0.14 0.08 0.09 0.13 0.25 0.50 1.43 2.95 2.51 2.12 1.61 0.76 0.50 0.54 0.55 0.66 0.89 1.10 1.58 1.76 1.75 2.73 3.93 3.84 3.33

GFSCGP_prec_precacc_240.txt.gz
Total_Precipitation_Accumulation
0.00 0.00 0.02 0.04 0.02 0.02 0.02 0.03 0.03 0.04 0.02 0.05 0.08 0.08 0.10 0.10 0.06 0.02 0.02 0.03 0.03 0.00 0.00 0.18 0.30 0.47 0.66 0.90 1.56 1.62 1.68 1.49 1.55 1.20 0.78 0.81 0.90 1.44 1.47 1.69 1.50 1.26 1.37 1.51
0.02 0.00 0.01 0.01 0.02 0.02 0.02 0.03 0.06 0.06 0.01 0.02 0.03 0.05 0.05 0.02 0.03 0.03 0.02 0.02 0.04 0.03 0.01 0.06 0.20 0.29 0.41 0.40 1.07 1.76 2.02 2.29 2.38 2.17 1.62 1.64 1.55 1.57 1.44 1.35 1.04 0.87 1.38 1.50
0.05 0.03 0.04 0.05 0.07 0.07 0.03 0.05 0.06 0.06 0.07 0.03 0.01 0.00 0.00 0.00 0.00 0.00 0.01 0.01 0.04 0.11 0.12 0.15 0.24 0.25 0.36 0.31 0.61 1.21 2.20 1.95 1.55 1.69 1.90 2.34 2.35 2.41 2.09 1.92 1.72 1.66 1.88 2.29
0.10 0.07 0.07 0.10 0.10 0.16 0.10 0.07 0.13 0.13 0.23 0.14 0.02 0.03 0.00 0.00 0.00 0.00 0.01 0.01 0.05 0.08 0.15 0.10 0.33 0.43 0.42 0.49 0.90 1.27 1.95 1.91 1.57 1.58 1.38 1.58 2.15 3.13 2.92 2.56 2.50 2.82 2.20 1.94
0.17 0.11 0.16 0.12 0.08 0.12 0.11 0.13 0.21 0.26 0.25 0.22 0.14 0.11 0.00 0.00 0.01 0.01 0.00 0.01 0.02 0.06 0.11 0.08 0.11 0.31 0.59 0.76 0.76 1.08 2.25 3.13 3.56 3.20 2.57 1.98 2.16 2.50 3.27 4.11 4.23 3.86 3.81 2.64
0.18 0.16 0.22 0.12 0.12 0.11 0.24 0.22 0.41 0.37 0.32 0.19 0.27 0.18 0.06 0.10 0.32 0.14 0.05 0.03 0.04 0.06 0.09 0.18 0.34 0.42 0.57 0.60 0.60 1.07 1.65 2.53 3.50 4.37 5.04 4.64 3.85 4.01 4.46 4.60 4.57 4.61 4.27 3.89
0.18 0.14 0.16 0.16 0.18 0.14 0.24 0.40 0.84 0.72 0.52 0.22 0.31 0.31 0.27 0.22 0.57 0.42 0.27 0.17 0.21 0.16 0.20 0.42 0.78 0.62 0.64 0.54 0.55 0.84 1.37 1.52 2.27 2.79 3.60 4.45 4.92 6.26 6.05 4.15 3.86 3.68 3.76 4.24
0.18 0.16 0.09 0.12 0.16 0.15 0.16 0.36 1.04 1.24 0.61 0.73 0.76 0.73 0.59 0.34 0.27 0.47 0.52 0.45 0.42 0.43 0.43 0.94 1.59 1.27 1.07 0.71 1.02 1.22 1.49 1.45 1.45 1.96 3.20 4.23 5.15 4.58 3.75 3.21 2.97 2.86 2.21 2.45
0.26 0.31 0.02 0.06 0.06 0.08 0.14 0.23 0.50 0.89 0.74 0.82 0.74 0.59 0.45 0.41 0.08 0.39 0.53 0.71 0.60 0.57 0.70 0.97 0.99 0.95 0.84 0.75 1.11 1.08 1.43 1.41 1.52 2.26 3.09 3.08 2.37 1.80 1.61 2.37 3.49 3.73 3.15 2.74
0.09 0.20 0.02 0.10 0.02 0.02 0.06 0.10 0.28 0.91 1.24 0.65 0.16 0.05 0.13 0.44 0.34 0.41 0.33 0.51 0.82 0.73 0.82 0.94 0.95 1.02 1.05 1.07 1.20 1.17 1.16 1.10 1.55 2.47 2.10 1.44 0.99 0.96 1.13 1.62 1.72 2.22 3.21 3.40
0.02 0.07 0.05 0.12 0.04 0.04 0.03 0.06 0.14 0.41 0.54 0.68 0.37 0.09 0.07 0.20 0.30 0.18 0.19 0.40 0.65 0.68 0.62 0.60 0.64 0.82 0.75 0.69 0.73 0.76 0.72 0.75 0.82 1.04 1.25 0.99 0.89 0.82 0.89 1.18 1.50 1.52 1.68 1.81
0.05 0.13 0.10 0.09 0.02 0.04 0.06 0.13 0.30 0.95 0.92 0.71 0.69 0.40 0.09 0.09 0.12 0.16 0.16 0.12 0.20 0.41 0.46 0.44 0.49 0.40 0.46 0.52 0.71 0.43 0.41 0.48 0.49 0.58 0.80 0.68 0.85 0.71 0.69 0.65 0.97 1.02 1.14 1.15
0.11 0.23 0.29 0.10 0.08 0.16 0.24 0.21 0.26 0.62 0.98 0.78 0.82 0.37 0.16 0.16 0.10 0.10 0.07 0.07 0.07 0.10 0.14 0.19 0.26 0.26 0.23 0.27 0.29 0.24 0.25 0.42 0.34 0.34 0.46 0.86 0.83 0.84 0.77 0.75 0.75 0.70 0.66 0.78
0.21 0.31 0.42 0.49 0.41 0.48 0.46 0.49 0.41 0.39 0.78 0.62 0.39 0.21 0.33 0.49 0.20 0.09 0.07 0.08 0.12 0.09 0.09 0.15 0.21 0.16 0.21 0.29 0.26 0.32 0.33 0.30 0.30 0.27 0.31 0.70 1.05 1.10 1.15 0.74 0.54 0.62 0.64 0.65
0.22 0.34 0.17 0.19 0.15 0.26 0.23 0.15 0.29 0.42 0.36 0.48 0.32 0.29 0.33 0.30 0.25 0.15 0.11 0.11 0.14 0.23 0.17 0.26 0.37 0.27 0.19 0.22 0.30 0.29 0.28 0.32 0.42 0.38 0.29 0.45 0.75 1.17 1.41 1.09 0.73 0.61 0.62 0.51
0.24 0.46 0.28 0.22 0.08 0.12 0.14 0.08 0.06 0.14 0.21 0.18 0.11 0.15 0.26 0.17 0.07 0.09 0.11 0.11 0.13 0.17 0.28 0.30 0.43 0.56 0.35 0.41 0.53 0.54 0.40 0.35 0.39 0.38 0.33 0.34 0.42 0.74 1.58 1.50 1.03 0.72 0.62 0.56
0.26 0.42 0.57 0.48 0.13 0.20 0.25 0.05 0.04 0.04 0.06 0.12 0.20 0.24 0.17 0.22 0.10 0.06 0.07 0.09 0.14 0.13 0.20 0.37 0.85 0.62 0.54 0.57 0.70 0.70 0.63 0.54 0.55 0.38 0.29 0.33 0.49 0.57 1.03 1.57 1.60 1.09 0.71 0.68
0.24 0.31 0.75 0.69 0.32 0.60 0.22 0.00 0.02 0.07 0.05 0.16 0.34 0.45 0.35 0.16 0.07 0.03 0.11 0.11 0.11 0.19 0.16 0.18 0.67 1.23 0.79 0.79 0.61 0.57 0.63 0.73 0.70 0.62 0.38 0.31 0.38 0.59 0.72 1.17 1.61 1.47 1.06 1.34
0.15 0.42 1.04 0.79 0.48 0.31 0.06 0.01 0.05 0.14 0.15 0.22 0.36 0.29 0.11 0.05 0.02 0.02 0.08 0.07 0.10 0.14 0.31 0.22 0.43 0.75 0.79 0.74 0.66 0.51 0.39 0.34 0.60 0.90 0.67 0.49 0.42 0.52 0.84 1.32 2.04 1.67 1.74 2.07
0.13 0.33 0.93 0.79 1.05 0.54 0.12 0.03 0.04 0.16 0.25 0.27 0.36 0.23 0.14 0.14 0.16 0.04 0.04 0.06 0.13 0.30 0.31 0.27 0.28 0.39 0.62 0.73 0.83 0.51 0.41 0.32 0.46 0.77 0.93 0.63 0.66 0.55 1.04 1.91 2.45 1.87 1.95 2.31
0.36 0.64 0.91 0.48 0.99 0.36 0.12 0.08 0.09 0.40 0.53 0.21 0.21 0.23 0.23 0.24 0.19 0.08 0.09 0.05 0.03 0.16 0.20 0.28 0.32 0.35 0.49 0.80 0.89 0.80 0.38 0.50 0.48 0.66 0.83 0.76 0.79 0.83 1.23 2.20 2.47 2.06 2.17 2.66
0.45 0.82 0.73 0.67 0.81 0.23 0.14 0.20 0.31 0.46 0.42 0.29 0.20 0.17 0.22 0.22 0.18 0.09 0.05 0.01 0.02 0.02 0.05 0.29 0.47 0.41 0.37 0.64 0.88 1.01 0.55 0.45 0.57 0.71 0.83 0.91 0.89 1.01 1.25 2.09 2.50 2.21 1.97 2.33
0.20 0.39 0.54 0.57 0.31 0.03 0.02 0.09 0.15 0.26 0.29 0.21 0.19 0.18 0.17 0.14 0.14 0.13 0.07 0.03 0.01 0.00 0.00 0.18 0.67 0.69 0.65 0.59 0.64 0.94 0.63 0.48 0.59 0.72 0.91 0.94 0.90 1.05 1.23 1.67 2.45 2.24 2.46 2.18
0.03 0.07 0.23 0.31 0.06 0.00 0.00 0.01 0.05 0.09 0.14 0.11 0.10 0.16 0.30 0.21 0.11 0.13 0.10 0.05 0.04 0.02 0.01 0.12 0.58 1.11 1.36 1.30 0.95 0.85 0.56 0.49 0.54 0.61 0.74 0.80 0.87 1.38 1.55 1.56 2.36 2.03 2.68 2.31
0.04 0.09 0.13 0.15 0.01 0.07 0.02 0.03 0.04 0.01 0.00 0.02 0.07 0.21 0.36 0.30 0.16 0.11 0.13 0.09 0.06 0.05 0.06 0.15 0.41 1.39 2.22 2.14 1.43 1.19 0.63 0.50 0.56 0.55 0.65 0.67 0.96 1.53 1.72 2.00 2.55 2.52 2.94 2.49
0.01 0.02 0.19 0.23 0.05 0.25 0.10 0.01 0.00 0.00 0.01 0.01 0.04 0.10 0.18 0.22 0.18 0.14 0.19 0.14 0.08 0.09 0.13 0.25 0.50 1.43 2.96 2.51 2.12 1.61 0.76 0.50 0.54 0.55 0.66 0.89 1.10 1.58 1.76 1.75 2.73 3.93 3.84 3.33

GFSCGP_prec_precacc_243.txt.gz
Total_Precipitation_Accumulation
0.00 0.00 0.02 0.04 0.02 0.02 0.02 0.03 0.03 0.04 0.02 0.05 0.08 0.08 0.10 0.10 0.06 0.02 0.02 0.03 0.03 0.00 0.00 0.18 0.30 0.47 0.66 0.90 1.56 1.62 1.68 1.49 1.55 1.20 0.78 0.81 0.90 1.44 1.47 1.69 1.50 1.26 1.37 1.51
0.02 0.00 0.01 0.01 0.02 0.02 0.02 0.03 0.06 0.06 0.01 0.02 0.03 0.05 0.05 0.02 0.03 0.03 0.02 0.02 0.04 0.03 0.01 0.06 0.20 0.29 0.41 0.40 1.07 1.76 2.02 2.29 2.38 2.17 1.62 1.64 1.55 1.57 1.44 1.35 1.04 0.87 1.38 1.50
0.05 0.03 0.04 0.05 0.07 0.07 0.03 0.05 0.06 0.06 0.07 0.03 0.01 0.00 0.00 0.00 0.00 0.00 0.01 0.01 0.04 0.11 0.12 0.15 0.24 0.25 0.36 0.31 0.61 1.21 2.20 1.95 1.55 1.69 1.90 2.34 2.35 2.41 2.09 1.92 1.72 1.66 1.88 2.29
0.10 0.07 0.07 0.10 0.10 0.16 0.10 0.07 0.13 0.13 0.23 0.14 0.02 0.03 0.00 0.00 0.00 0.00 0.01 0.01 0.05 0.08 0.15 0.10 0.33 0.43 0.42 0.49 0.90 1.27 1.95 1.91 1.57 1.58 1.38 1.58 2.16 3.14 2.93 2.56 2.50 2.82 2.20 1.94
0.17 0.11 0.16 0.12 0.08 0.12 0.11 0.13 0.21 0.26 0.25 0.22 0.14 0.11 0.00 0.00 0.01 0.01 0.00 0.01 0.02 0.06 0.11 0.08 0.11 0.31 0.59 0.76 0.76 1.08 2.25 3.13 3.56 3.20 2.57 1.99 2.17 2.50 3.28 4.12 4.24 3.87 3.81 2.64
0.18 0.16 0.22 0.12 0.12 0.11 0.24 0.22 0.41 0.37 0.32 0.19 0.27 0.18 0.06 0.10 0.32 0.14 0.05 0.03 0.04 0.06 0.09 0.18 0.34 0.42 0.57 0.60 0.60 1.07 1.65 2.53 3.50 4.37 5.04 4.65 3.86 4.03 4.48 4.62 4.58 4.62 4.28 3.89
0.18 0.14 0.16 0.16 0.18 0.14 0.24 0.40 0.84 0.72 0.52 0.22 0.31 0.31 0.27 0.22 0.57 0.42 0.27 0.17 0.21 0.16 0.20 0.42 0.78 0.62 0.64 0.54 0.55 0.84 1.37 1.52 2.27 2.79 3.60 4.46 4.95 6.30 6.09 4.19 3.89 3.71 3.78 4.26
0.18 0.16 0.09 0.12 0.16 0.15 0.16 0.36 1.04 1.24 0.61 0.73 0.76 0.73 0.59 0.34 0.27 0.47 0.52 0.45 0.42 0.43 0.43 0.94 1.59 1.27 1.07 0.71 1.02 1.22 1.50 1.45 1.46 1.96 3.21 4.25 5.18 4.63 3.81 3.27 3.03 2.92 2.26 2.48
0.26 0.31 0.02 0.06 0.06 0.08 0.14 0.23 0.50 0.89 0.74 0.82 0.74 0.59 0.45 0.41 0.08 0.39 0.53 0.71 0.60 0.57 0.70 0.97 0.99 0.95 0.84 0.75 1.11 1.09 1.44 1.42 1.53 2.28 3.12 3.12 2.42 1.85 1.67 2.42 3.56 3.80 3.19 2.79
0.09 0.20 0.02 0.10 0.02 0.02 0.06 0.10 0.28 0.91 1.24 0.65 0.16 0.05 0.13 0.44 0.34 0.41 0.33 0.51 0.82 0.73 0.82 0.94 0.95 1.02 1.05 1.07 1.20 1.17 1.17 1.11 1.56 2.48 2.12 1.48 1.04 1.02 1.21 1.71 1.81 2.26 3.24 3.46
0.02 0.07 0.05 0.12 0.04 0.04 0.03 0.06 0.14 0.41 0.54 0.68 0.37 0.09 0.07 0.20 0.30 0.18 0.19 0.40 0.65 0.68 0.62 0.60 0.64 0.82 0.75 0.69 0.73 0.76 0.73 0.75 0.82 1.06 1.25 1.01 0.92 0.87 0.95 1.24 1.55 1.54 1.69 1.85
0.05 0.13 0.10 0.09 0.02 0.04 0.06 0.13 0.30 0.95 0.92 0.71 0.69 0.40 0.09 0.09 0.12 0.16 0.16 0.12 0.20 0.41 0.46 0.44 0.49 0.40 0.46 0.52 0.71 0.44 0.41 0.48 0.49 0.59 0.81 0.69 0.87 0.73 0.71 0.68 1.00 1.04 1.15 1.15
0.11 0.23 0.29 0.10 0.08 0.16 0.24 0.21 0.26 0.62 0.98 0.78 0.82 0.37 0.16 0.16 0.10 0.10 0.07 0.07 0.07 0.10 0.14 0.19 0.26 0.26 0.23 0.27 0.29 0.24 0.25 0.42 0.34 0.35 0.46 0.87 0.85 0.87 0.81 0.81 0.80 0.73 0.68 0.78
0.21 0.31 0.42 0.49 0.41 0.48 0.46 0.49 0.41 0.39 0.78 0.62 0.39 0.21 0.33 0.49 0.20 0.09 0.07 0.08 0.12 0.09 0.09 0.15 0.21 0.16 0.21 0.29 0.27 0.33 0.33 0.30 0.30 0.27 0.31 0.71 1.08 1.15 1.21 0.79 0.62 0.67 0.66 0.66
0.22 0.34 0.17 0.19 0.15 0.26 0.23 0.15 0.29 0.42 0.36 0.48 0.32 0.29 0.33 0.30 0.25 0.15 0.11 0.11 0.14 0.23 0.17 0.26 0.37 0.27 0.19 0.22 0.30 0.29 0.28 0.32 0.42 0.38 0.29 0.46 0.77 1.19 1.42 1.11 0.79 0.68 0.65 0.54
0.24 0.46 0.28 0.22 0.08 0.12 0.14 0.08 0.06 0.14 0.21 0.18 0.11 0.15 0.26 0.17 0.07 0.09 0.11 0.11 0.13 0.17 0.28 0.30 0.43 0.57 0.35 0.41 0.53 0.54 0.40 0.35 0.39 0.38 0.33 0.34 0.43 0.75 1.58 1.50 1.04 0.77 0.66 0.59
0.26 0.42 0.57 0.48 0.13 0.20 0.25 0.05 0.04 0.04 0.06 0.12 0.20 0.24 0.17 0.22 0.10 0.06 0.07 0.09 0.14 0.13 0.20 0.37 0.85 0.62 0.54 0.57 0.70 0.70 0.63 0.54 0.55 0.38 0.29 0.33 0.49 0.57 1.03 1.57 1.60 1.11 0.76 0.71
0.24 0.31 0.75 0.69 0.32 0.60 0.22 0.00 0.02 0.07 0.05 0.16 0.34 0.45 0.35 0.16 0.07 0.03 0.11 0.11 0.11 0.19 0.16 0.18 0.68 1.23 0.79 0.79 0.61 0.57 0.63 0.74 0.70 0.62 0.38 0.31 0.38 0.59 0.72 1.17 1.61 1.47 1.06 1.36
0.15 0.42 1.04 0.79 0.48 0.31 0.06 0.01 0.05 0.14 0.15 0.22 0.36 0.29 0.11 0.05 0.02 0.02 0.08 0.07 0.10 0.14 0.31 0.22 0.43 0.75 0.79 0.74 0.67 0.51 0.39 0.34 0.60 0.90 0.67 0.49 0.42 0.52 0.84 1.32 2.05 1.67 1.74 2.07
0.13 0.33 0.93 0.79 1.05 0.54 0.12 0.03 0.04 0.16 0.25 0.27 0.36 0.23 0.14 0.14 0.16 0.04 0.04 0.06 0.13 0.30 0.31 0.27 0.29 0.39 0.62 0.73 0.83 0.51 0.41 0.32 0.46 0.77 0.93 0.63 0.66 0.55 1.04 1.91 2.45 1.87 1.95 2.31
0.36 0.64 0.91 0.48 0.99 0.36 0.12 0.08 0.09 0.40 0.53 0.21 0.21 0.23 0.23 0.24 0.19 0.08 0.09 0.05 0.03 0.16 0.20 0.28 0.32 0.35 0.49 0.80 0.90 0.81 0.38 0.50 0.48 0.66 0.83 0.76 0.79 0.83 1.23 2.20 2.47 2.06 2.17 2.66
0.45 0.82 0.73 0.67 0.81 0.23 0.14 0.20 0.31 0.46 0.42 0.29 0.20 0.17 0.22 0.22 0.18 0.09 0.05 0.01 0.02 0.02 0.05 0.29 0.47 0.41 0.37 0.64 0.89 1.02 0.55 0.45 0.57 0.71 0.83 0.91 0.89 1.01 1.25 2.09 2.50 2.21 1.97 2.33
0.20 0.39 0.54 0.57 0.31 0.03 0.02 0.09 0.15 0.26 0.29 0.21 0.19 0.18 0.17 0.14 0.14 0.13 0.07 0.03 0.01 0.00 0.00 0.18 0.67 0.69 0.65 0.59 0.64 0.94 0.63 0.48 0.59 0.72 0.91 0.94 0.90 1.05 1.23 1.67 2.45 2.24 2.46 2.18
0.03 0.07 0.23 0.31 0.06 0.00 0.00 0.01 0.05 0.09 0.14 0.11 0.10 0.16 0.30 0.21 0.11 0.13 0.10 0.05 0.04 0.02 0.01 0.12 0.58 1.11 1.36 1.30 0.95 0.86 0.56 0.49 0.54 0.61 0.74 0.80 0.87 1.38 1.55 1.56 2.36 2.03 2.68 2.31
0.04 0.09 0.13 0.15 0.01 0.07 0.02 0.03 0.04 0.01 0.00 0.02 0.07 0.21 0.36 0.30 0.16 0.11 0.13 0.09 0.06 0.05 0.06 0.15 0.41 1.39 2.22 2.14 1.43 1.20 0.63 0.50 0.56 0.55 0.65 0.67 0.96 1.53 1.72 2.00 2.55 2.52 2.94 2.49
0.01 0.02 0.19 0.23 0.05 0.25 0.10 0.01 0.00 0.00 0.01 0.01 0.04 0.10 0.18 0.22 0.18 0.14 0.19 0.14 0.08 0.09 0.13 0.25 0.50 1.43 2.96 2.51 2.13 1.61 0.76 0.50 0.54 0.55 0.66 0.89 1.10 1.58 1.76 1.75 2.73 3.93 3.84 3.33